CDT,Max TemperatureF,Mean TemperatureF,Min TemperatureF,Max Dew PointF,MeanDew PointF,Min DewpointF,Max Humidity, Mean Humidity, Min Humidity, Max Sea Level PressureIn, Mean Sea Level PressureIn, Min Sea Level PressureIn, Max VisibilityMiles, Mean VisibilityMiles, Min VisibilityMiles, Max Wind SpeedMPH, Mean Wind SpeedMPH, Max Gust SpeedMPH,PrecipitationIn, CloudCover, Events, WindDirDegrees
2011-10-1,68,57,45,43,41,34,86,59,31,30.20,30.15,30.04,10,10,10,15,6,23,0.00,0,,360
2011-10-2,72,57,41,44,37,30,89,56,22,30.24,30.20,30.16,10,10,10,12,4,16,0.00,0,,351
2011-10-3,78,59,40,47,40,36,92,57,22,30.29,30.23,30.19,10,10,10,10,2,13,0.00,0,,313
2011-10-4,80,62,44,52,46,41,93,60,26,30.32,30.26,30.21,10,10,9,8,1,13,0.00,0,,62
2011-10-5,84,66,47,55,50,45,93,60,26,30.28,30.22,30.17,10,9,2,8,1,14,0.00,0,,71
2011-10-6,85,68,50,58,53,49,96,64,32,30.27,30.23,30.19,10,7,0,13,3,17,0.00,0,Fog,113
2011-10-7,83,68,52,57,54,51,86,60,34,30.36,30.29,30.25,10,10,10,14,4,22,0.00,0,,112
2011-10-8,82,69,56,55,53,49,86,63,39,30.37,30.30,30.25,10,10,10,17,7,23,0.00,0,,106
2011-10-9,79,66,52,55,53,50,96,69,42,30.30,30.23,30.16,10,10,10,23,6,29,0.00,0,,104
2011-10-10,81,71,60,61,58,55,90,66,42,30.15,30.08,30.00,10,10,10,16,4,23,0.01,5,Rain,75
2011-10-11,68,66,63,63,62,58,93,85,76,30.02,29.96,29.91,10,9,4,13,4,16,0.12,8,Rain,92
2011-10-12,70,67,63,62,60,57,93,80,66,29.91,29.84,29.74,10,10,10,8,3,10,0.03,7,,160
2011-10-13,75,66,56,62,59,51,93,71,49,29.80,29.70,29.66,10,9,2,24,8,32,0.56,6,Rain-Thunderstorm,264
2011-10-14,80,64,48,50,47,41,93,59,25,30.00,29.91,29.80,10,10,10,21,6,29,0.00,0,,269
2011-10-15,78,63,47,50,43,34,89,55,21,30.14,30.09,29.99,10,10,10,14,3,18,0.00,0,,313
2011-10-16,87,66,45,51,47,43,93,58,23,30.16,30.07,29.98,10,10,10,17,6,23,0.00,0,,214
2011-10-17,88,71,53,56,53,50,93,62,31,30.00,29.91,29.80,10,10,10,14,4,21,0.00,0,,228
2011-10-18,81,65,48,58,53,44,93,69,45,29.78,29.69,29.58,10,10,8,38,7,47,0.16,4,Rain-Thunderstorm,291
2011-10-19,54,51,47,44,41,37,86,75,63,29.85,29.74,29.67,10,10,10,23,13,28,0.00,8,,299
2011-10-20,61,50,39,40,37,34,82,61,39,30.10,29.96,29.85,10,10,10,21,10,28,0.00,3,,268
2011-10-21,65,50,34,40,35,32,92,61,30,30.22,30.17,30.12,10,10,2,15,3,20,0.00,0,,295
2011-10-22,70,52,33,43,36,31,96,62,28,30.24,30.17,30.09,10,9,2,8,1,10,0.00,0,,240
2011-10-23,69,53,37,50,41,36,92,60,28,30.14,30.11,30.06,10,10,10,12,3,15,0.00,3,,160
2011-10-24,75,60,45,52,47,44,100,69,38,30.23,30.18,30.12,10,5,0,12,1,15,0.00,3,Fog,305
2011-10-25,81,62,43,55,45,39,100,63,25,30.28,30.21,30.08,10,4,0,12,3,14,0.00,3,Fog,0
2011-10-26,80,64,48,57,49,45,86,60,33,30.09,30.01,29.92,10,10,10,17,6,25,0.00,1,,203
2011-10-27,69,61,52,56,51,46,86,69,52,30.05,29.96,29.88,10,10,9,15,7,21,0.01,7,Rain,336
2011-10-28,53,48,42,46,44,37,93,82,71,30.16,30.05,29.98,10,9,4,14,7,21,0.85,7,Rain,17
2011-10-29,63,48,32,40,34,30,92,61,30,30.24,30.18,30.14,10,9,2,13,3,16,0.00,0,,304
2011-10-30,64,48,32,39,33,29,96,62,27,30.31,30.23,30.17,10,10,3,13,3,23,0.00,0,,172
2011-10-31,68,53,37,38,34,23,92,56,19,30.24,30.20,30.17,10,10,10,14,2,17,0.00,0,,256